This demonstration page uses our WeatherBlox Daily Observations layout. Learn more.

Left ArrowRight Arrow

Hourly Observations for January 31, 2016

Temp ( °F °C ) Dew Point ( °F °C ) Humidity (%) Winds ( mph kmh ) Pressure ( in mb ) Visibility ( mi km ) Precip ( " mm )
12:58 am 00:58 Clear 39 4.1 35 1.7 85 85 NNW 7 11 29.60 1002 10 16 0.00 0.00
1:58 am 01:58 Mostly Clear 38 3.3 34 1.3 87 87 NNW 10 17 29.60 1002 10 16 0.00 0.00
2:58 am 02:58 Cloudy 38 3.3 35 1.5 88 88 NNW 10 17 29.60 1003 10 16 0.00 0.00
3:58 am 03:58 Cloudy 37 3 34 1.1 87 87 N 8 13 29.60 1003 10 16 0.00 0.00
4:58 am 04:58 Mostly Cloudy 38 3.3 34 1.2 86 86 N 7 11 29.62 1003 10 16 0.00 0.00
5:58 am 05:58 Cloudy 37 2.9 35 1.4 90 90 NW 8 13 29.67 1005 10 16 0.00 0.00
6:58 am 06:58 Cloudy 37 2.9 35 1.4 90 90 NNW 5 7 29.71 1006 10 16 0.00 0.00
7:58 am 07:58 Cloudy 36 2.4 35 1.4 93 93 WNW 6 9 29.72 1007 10 16 0.00 0.00
8:58 am 08:58 Cloudy 37 2.5 35 1.6 94 94 WNW 8 13 29.75 1008 10 16 0.00 0.00
9:58 am 09:58 Mostly Cloudy 39 4.1 36 2.2 88 88 WNW 12 19 29.76 1008 10 16 0.00 0.00
10:58 am 10:58 Mostly Sunny 42 5.5 36 2.3 80 80 NW 15 24 29.79 1009 10 16 0.00 0.00
11:58 am 11:58 Sunny 44 6.8 37 2.5 74 74 WNW 14 22 29.79 1009 10 16 0.00 0.00
12:58 pm 12:58 Sunny 47 8.1 34 1.2 62 62 NW 15 24 29.77 1008 10 16 0.00 0.00
1:58 pm 13:58 Sunny 47 8.5 36 2.1 64 64 WNW 12 19 29.78 1008 10 16 0.00 0.00
2:58 pm 14:58 Sunny 48 9 34 1 58 58 WNW 10 17 29.81 1009 10 16 0.00 0.00
3:58 pm 15:58 Sunny 47 8.5 33 0.6 58 58 W 13 20 29.83 1010 10 16 0.00 0.00
4:58 pm 16:58 Sunny 46 7.8 32 0.2 59 59 WNW 7 11 29.85 1011 10 16 0.00 0.00
6:58 pm 18:58 Clear 33 0.6 28 -2.1 82 82 NW 2 4 29.91 1013 10 16 0.00 0.00
7:58 pm 19:58 Clear 32 -0.1 28 -2.5 84 84 WNW 5 7 29.94 1014 10 16 0.00 0.00
8:58 pm 20:58 Clear 32 -0.2 28 -2.1 87 87 WNW 6 9 29.96 1015 10 16 0.00 0.00
9:58 pm 21:58 Clear 29 -1.5 28 -2.4 94 94 W 2 4 29.98 1015 10 16 0.00 0.00
10:58 pm 22:58 Clear 31 -0.5 28 -2.5 87 87 W 2 4 29.98 1015 10 16 0.00 0.00
11:58 pm 23:58 Clear 31 -0.8 28 -2.3 90 90 WNW 7 11 29.98 1015 10 16 0.00 0.00

Powered by AerisWeather